Flag for Canada Weather past 2 weeks in Calgary, Alberta, Canada

Now
75 °F

Passing clouds.


Feels Like: 77 °F
Forecast: 58 / 84 °F
Wind: 12 mph from Northwest

Location: Calgary International

Current Time: Jul 31, 2014 at 1:16:06 PM

Latest Report: Jul 31, 2014 at 12:00 PM


Visibility: 30 mi

Pressure: 30.10 "Hg

Humidity: 61%

Dew point: 61 °F

Location of CalgaryLocation

Historic Weather in Calgary — Graph

°F

Calgary temperature yesterday

Maximum temperature yesterday: 90 °F (at 2:00 PM)
Minimum temperature yesterday: 59 °F (at 6:00 AM)
Average temperature yesterday: 78 °F

Past Weeks' High & Low Weather Summary

 TemperatureHumidityPressure
High90 °F (Jul 29, 4:00 PM)94% (Jul 20, 6:00 AM)30.28 "Hg (Jul 20, 6:00 AM)
Low50 °F (Jul 18, 5:00 AM)14% (Jul 30, 12:56 AM)29.55 "Hg (Jul 19, 7:00 PM)
Average66 °F57%29.96 "Hg
* Reported Jul 16 12:00 Noon — Jul 31 12:00 Noon, Calgary, Weather by CustomWeather, © 2014

Note: Actual official high and low records may vary slightly from our data, if they occured in-between our weather recording intervals... More about our weather records

Advertising

Calgary weather history for previous 24 hours

 ConditionsComfort  
Time TempWeatherWind HumidityBarometerVisibility
12:00 PM
Jul 31
75 °FPassing clouds.12 mph61%30.10 "Hg30 mi
11:00 AM73 °FPassing clouds.16 mph61%30.11 "Hg30 mi
10:00 AM72 °FScattered clouds.17 mph69%30.11 "Hg30 mi
9:00 AM70 °FPassing clouds.17 mph69%30.10 "Hg30 mi
8:00 AM66 °FPassing clouds.17 mph68%30.10 "Hg30 mi
7:00 AM63 °FPassing clouds.14 mph56%30.10 "Hg20 mi
6:00 AM61 °FPassing clouds.16 mph55%30.08 "Hg15 mi
5:00 AM61 °FPassing clouds.2 mph55%30.05 "Hg15 mi
4:00 AM61 °FPassing clouds.9 mph55%30.05 "Hg15 mi
3:00 AM63 °FPassing clouds.7 mph52%30.03 "Hg15 mi
2:00 AM68 °FPassing clouds.2 mph40%30.01 "Hg15 mi
1:00 AM73 °FPassing clouds.7 mph29%30.00 "Hg15 mi
12:00 AM75 °FPassing clouds.7 mph27%29.99 "Hg15 mi
11:00 PM
Jul 30
75 °FPassing clouds.25 mph29%30.05 "Hg15 mi
10:00 PM79 °FPartly sunny.13 mph24%30.04 "Hg15 mi
9:00 PM81 °FThunderstorms. Partly sunny.10 mph21%30.03 "Hg20 mi
8:00 PM77 °FThunderstorms. Broken clouds.9 mph39%30.04 "Hg20 mi
7:50 PM77 °FThunderstorms. More clouds than sun.8 mph47%30.06 "Hg20 mi
7:00 PM79 °FCloudy.10 mph54%30.06 "Hg30 mi
6:00 PM84 °FBroken clouds.6 mph33%30.05 "Hg30 mi
5:00 PM88 °FBroken clouds.5 mph29%30.03 "Hg30 mi
4:00 PM86 °FBroken clouds.8 mph29%30.03 "Hg30 mi
3:00 PM86 °FBroken clouds.10 mph24%30.01 "Hg30 mi
2:02 PM90 °FPartly sunny.8 mph20%30.00 "Hg15 mi
2:00 PM90 °FPartly sunny.12 mph18%30.00 "Hg15 mi
1:00 PM88 °FScattered clouds.6 mph21%30.00 "Hg15 mi
Weather by CustomWeather, © 2014

See weather overviewHow to use our weather pages